Location: Tangellam?di
(16.2857°N, 80.5861°E)
Time: 09:03:08
(UTC+00:00)

Daily predictions for brighter satellites

Satellite Brightness Start Highest point End
(mag) Time Altitude Azimuth Time Altitude Azimuth Time Altitude Azimuth
GPS 2-15 Rocket1 3.4 12:19:39 10° WNW 12:24:23 58° N 12:29:12 10° E
Cosmos 1933 4.2 12:23:07 10° SSE 12:26:39 29° E 12:30:11 10° NNE
Sich 1 3.0 12:24:47 10° N 12:29:07 64° E 12:33:29 10° SSE
Feng Yun 1-1 Rocket 4.4 12:25:05 10° SSE 12:30:49 86° WSW 12:36:24 10° NNW
CORIOLIS 4.1 12:27:35 10° SSE 12:32:57 78° ENE 12:38:20 10° N
Cosmos 2346 Rocket 4.5 12:26:56 10° S 12:33:09 67° E 12:39:18 10° N
Cosmos 1666 Rocket 3.7 12:31:06 10° N 12:35:18 51° E 12:39:28 10° SSE
COSMO-SKYMED 1 2.7 12:32:15 10° N 12:36:34 80° WNW 12:40:54 10° SSW
Centaur D-1A AC-31 2.1 12:36:16 10° WNW 12:39:03 28° N 12:42:39 11° NE
SL-16 R/B 2.8 12:34:04 10° SSE 12:39:08 35° ESE 12:44:11 10° NE
ATLAS 5 CENTAUR R/B 2.9 12:29:50 10° SSW 12:39:57 55° SE 12:43:09 11° NE
Cosmos 1980 Rocket 3.3 12:36:22 10° SW 12:41:44 45° WNW 12:47:07 10° N
SeaSat 1 3.6 12:40:10 10° ESE 12:43:47 21° ENE 12:47:24 10° NNE
ISS -3.8 12:42:58 10° SW 12:46:17 89° WNW 12:49:14 13° NE
YAOGAN 1 3.7 12:43:21 10° SE 12:46:38 21° ENE 12:49:55 10° NNE
Cosmos 1606 3.0 12:43:38 10° SSE 12:47:14 44° E 12:50:50 10° NNE
Cosmos 2322 Rocket 2.8 12:42:16 10° SSE 12:47:17 34° ESE 12:52:11 10° NE
Cosmos 1862 3.2 12:43:57 10° N 12:47:54 67° E 12:51:53 10° SSE
Cosmos 2219 4.1 12:42:39 10° NNW 12:48:07 54° WSW 12:53:34 10° S
COSMOS 2455 3.5 12:45:21 10° S 12:50:41 34° ESE 12:55:09 14° NE
Envisat 2.9 12:46:04 10° SSE 12:51:05 67° ENE 12:56:07 10° N
ADEOS Rocket 4.3 12:52:48 15° E 12:53:24 15° E 12:56:25 10° SE
Cosmos 1782 4.0 12:55:40 10° SE 12:58:45 21° E 12:58:59 21° E
NOAA 12 4.4 12:56:10 10° S 13:01:28 73° WSW 13:06:46 10° NNW
ATLAS 5 CENTAUR R/B 2.1 12:58:08 10° WNW 13:01:47 62° N 13:09:32 19° E
ASTRO E2 3.2 12:58:45 10° SW 13:02:34 44° SSE 13:04:24 26° E
Cosmos 2297 Rocket 2.7 12:57:37 10° NNW 13:03:12 65° WSW 13:08:46 10° S
ATLAS 2AS CENTAUR R/B 3.9 12:57:28 10° SSE 13:03:27 26° ESE 13:06:31 21° ENE
Cosmos 2227 Rocket 2.5 12:58:00 10° NNW 13:03:38 72° WSW 13:09:13 10° S
Intelsat 5-3 Rocket 3.2 13:04:31 10° NW 13:06:11 16° N 13:06:11 16° N
Cosmos 1470 Rocket 3.7 13:02:14 10° N 13:06:34 49° E 13:10:51 10° SSE
DMSP B5D1-3 4.5 13:03:25 10° NNE 13:08:34 85° ESE 13:13:42 10° S
Cosmos 1400 Rocket 2.8 13:09:05 10° S 13:13:06 64° E 13:16:05 18° NNE
Palapa 6 Rocket 2.7 13:09:30 10° WSW 13:13:14 68° SSE 13:14:41 37° E
FengYun 1-2 T 4.1 13:08:10 10° SSE 13:13:44 82° ENE 13:19:14 10° N
Cosmos 2034 Rocket 4.1 13:08:05 10° N 13:14:28 86° W 13:20:49 10° S
NATO 3D Rocket 4.1 13:09:42 10° WNW 13:15:03 58° N 13:18:46 28° ENE
NOSS 2-2 (E) 3.0 13:13:04 10° SSW 13:17:03 74° ESE 13:18:16 39° NE
Delta 168 4.2 13:15:54 10° NW 13:18:24 19° N 13:18:24 19° N
Okean-O 4.4 13:15:40 10° SSW 13:19:41 34° W 13:23:42 10° NW
GOES 2 Rocket 4.1 13:23:40 10° SW 13:28:40 35° SSE 13:29:37 32° SE
Cosmos 1371 Rocket 4.0 13:24:25 10° N 13:29:26 50° ENE 13:34:25 10° SSE
ATLAS 5 CENTAUR R/B 3.2 13:24:18 10° NW 13:30:48 59° WSW 13:37:46 10° S
Hubble Space Telescope 2.3 13:28:49 10° WNW 13:32:11 24° NNW 13:32:38 23° N
Cosmos 1634 Rocket 4.1 13:27:04 10° N 13:32:59 49° E 13:38:54 10° SSE
Aurora 2 Rocket 3.4 13:29:31 10° WNW 13:33:15 39° N 13:34:00 36° NNE
Cosmos 2082 4.1 13:28:11 10° NNW 13:33:43 64° WSW 13:39:16 10° S
CZ-4 R/B 2.6 13:36:43 10° S 13:40:43 43° W 13:44:41 10° NNW
Cosmos 724 4.4 13:39:25 10° N 13:44:12 50° NE 13:44:12 50° NE
Cosmos 1048 Rocket 3.9 13:40:44 10° SSW 13:45:57 85° WNW 13:47:34 46° N
ARIANE 5 R/B 4.2 13:43:37 10° WSW 13:53:04 23° SSW 13:55:04 18° SSE
NOAA 11 4.1 13:49:28 10° SSE 13:54:53 87° WSW 14:00:19 10° NNW
Delta 7925 Rocket 4.4 13:49:46 10° WNW 13:55:43 47° NNE 13:55:59 47° NNE
CZ-3C R/B 2.2 13:55:18 10° W 13:58:27 32° WSW 13:58:27 32° WSW
Delta 198 4.1 13:53:43 10° WNW 14:00:11 83° NNE 14:00:11 83° NNE
Cosmos 2237 4.2 13:58:44 10° SSW 14:03:56 75° S 14:03:56 75° S
GPS 2-15 Rocket1 4.0 14:03:53 10° WNW 14:07:23 48° W 14:07:23 48° W
Atlas Centaur 2 3.2 14:08:02 10° SW 14:15:24 50° SSE 14:15:24 50° SSE
NOSS 3-4 (A) 4.2 14:10:21 10° SSW 14:14:02 38° S 14:14:02 38° S
NOSS 3-4 (C) 4.3 14:10:27 10° SSW 14:14:06 37° S 14:14:06 37° S
Cosmos 2360 Rocket 2.7 14:14:20 10° SSW 14:19:18 56° W 14:19:18 56° W
SeaSat 1 4.3 14:16:50 10° S 14:21:02 29° WSW 14:25:15 10° NW
ADEOS Rocket 4.0 14:39:45 37° W 14:39:45 37° W 14:44:03 10° SW
ATLAS 2AS CENTAUR R/B 3.8 14:46:52 10° SW 14:54:01 44° WNW 14:54:02 44° WNW
CZ-3B R/B 3.9 21:42:03 27° ENE 21:42:03 27° ENE 21:44:19 10° ENE
Milstar 3 Cent rocket 3.4 22:10:06 79° WSW 22:10:41 83° SSW 22:17:52 10° ESE
FALCON 9 R/B 3.4 22:14:14 40° SSE 22:14:50 41° SE 22:25:50 10° ENE
CZ-2C R/B 4.0 22:26:41 26° SSE 22:26:41 26° SSE 22:29:00 10° S
ATLAS CENTAUR R/B 4.4 22:30:15 11° NNE 22:30:15 11° NNE 22:30:22 10° NNE
CZ-3C R/B 2.8 22:27:40 38° S 22:27:40 38° S 22:38:34 10° ESE
Cosmos 1697 Rocket 3.3 22:27:11 51° ENE 22:27:19 51° ENE 22:32:44 10° SSE
CZ-3B R/B 4.3 22:30:43 14° NE 22:30:43 14° NE 22:32:27 10° ENE
ISS -0.9 22:41:03 16° SE 22:41:03 16° SE 22:41:52 10° SE
Cosmos 2151 4.2 22:46:09 10° SSE 22:50:10 41° E 22:54:12 10° NNE
Cosmos 2221 3.3 22:52:11 43° S 22:52:11 43° S 22:55:07 10° S
Meteor 1-27 4.2 22:50:55 40° N 22:53:08 89° E 22:58:56 10° S
APEX 3.9 22:52:48 57° NE 22:53:08 59° ENE 22:58:05 10° SSE
Geosat 4.3 22:50:27 10° SSE 22:55:24 65° ENE 22:57:18 37° N
Cosmos 923 Rocket 4.0 22:57:47 44° N 22:59:29 82° ENE 23:04:45 10° SSE
Cosmos 1153 Rocket 4.3 22:53:46 10° SSW 22:59:51 64° W 23:05:54 10° N
Milstar 3 3.1 22:57:56 41° WNW 23:01:24 76° SSW 23:08:15 10° ESE
GOES 2 Rocket 4.3 23:00:56 45° WSW 23:02:37 55° SSW 23:10:41 10° SE
Cosmos 2173 Rocket 4.3 22:57:06 10° S 23:03:22 69° E 23:09:33 10° N
Meteor 1-31 Rocket 3.8 23:05:38 35° SSW 23:05:38 35° SSW 23:07:57 10° SSW
CZ-4B R/B 3.9 23:01:38 10° N 23:06:05 84° W 23:10:23 10° SSW
Cosmos 1766 Rocket 3.9 23:01:58 10° S 23:06:13 64° E 23:10:29 10° NNE
Cosmos 1484 Rocket 4.1 23:05:52 10° NNE 23:09:38 41° E 23:13:24 10° S
Centaur D AC-28 3.6 23:07:12 26° NNW 23:09:50 39° NNE 23:28:38 10° E
Cosmos 2123 Rocket 4.3 23:10:38 41° W 23:10:52 41° W 23:16:42 10° SSW
ARIANE 5 R/B 4.5 23:00:24 21° WSW 23:11:17 42° SSW 23:15:46 10° SE
Okean 3 Rocket 3.5 23:09:18 10° S 23:13:48 70° W 23:18:17 10° N
GPS 2-12 Rocket1 2.9 23:16:31 53° W 23:17:32 78° SSW 23:22:03 10° ESE
Meteor 2-2 Rocket 4.1 23:14:21 13° NNW 23:19:21 72° W 23:25:01 10° S
Cosmos 1869 3.1 23:20:13 24° N 23:22:30 85° W 23:26:27 10° S
GPS 2-18 Rocket1 3.6 23:22:19 41° NNW 23:23:00 46° N 23:26:52 10° E
Atlas Centaur 2 0.9 23:22:59 59° WSW 23:23:26 67° SSW 23:27:00 10° SE
Ariane H10-3 4.2 23:21:27 10° SSW 23:23:58 17° SSE 23:29:07 10° ESE
Cosmos 1125 Rocket 4.0 23:21:46 10° S 23:26:58 61° ESE 23:32:10 10° NNE
Cosmos 2150 Rocket 4.1 23:23:19 10° SSW 23:28:39 56° WNW 23:33:59 10° N
SL-16 R/B 4.4 23:26:20 10° NNE 23:30:49 24° ENE 23:35:16 10° ESE
CZ-4B R/B 3.7 23:32:07 29° WSW 23:32:07 29° WSW 23:34:36 10° SW
Cosmos 1408 2.5 23:27:50 10° S 23:31:32 90° E 23:35:13 10° N
Cosmos 1980 Rocket 2.1 23:28:12 14° NNW 23:33:01 70° WSW 23:38:37 10° S
KM-V1 4.1 23:33:04 34° N 23:33:14 34° NNE 23:35:11 10° E
Cosmos 2322 Rocket 4.4 23:34:07 10° NNE 23:38:35 24° ENE 23:43:03 10° ESE
CZ-3B R/B 2.6 23:36:53 22° WNW 23:40:23 34° NNW 23:44:29 10° NE
Cosmos 1356 Rocket 3.7 23:38:23 16° NNW 23:41:30 44° W 23:45:30 10° SSW
GPS 2-05 Rocket1 2.4 23:42:55 41° WNW 23:43:13 44° NNW 23:45:45 10° NE
Cosmos 1459 Rocket 4.2 23:38:44 10° SSW 23:44:33 46° W 23:50:27 10° NNW
Meteor PRIRODA 4.3 23:44:45 10° NNW 23:47:57 30° WNW 23:51:08 10° SW
SWIFT 2.6 23:46:37 22° WNW 23:49:09 54° N 23:53:21 10° ENE
COSMOS 2455 4.3 23:45:13 10° N 23:50:42 36° ENE 23:56:09 10° SE
MOS 1-B 4.3 23:46:19 10° N 23:52:00 61° WNW 23:57:41 10° SSW
PSLV R/B 4.4 23:50:14 10° N 23:53:51 35° WNW 23:57:33 10° SW
ALOS 2.2 23:50:06 10° N 23:54:46 86° WNW 23:59:26 10° SSW
SJ-12 3.9 23:51:18 10° N 23:55:21 57° WNW 23:59:24 10° SSW
